| time (UTC) | temp F | wind direction | speed knots | gust knots | rain 1hr in | rain 24hr in | rain mn in | humidity % | barometer mb |
| 20260510090056 | 61 | 5 | 6.1 | 13.0 | 0.00 | 0.00 | 0.00 | 67 | 1019.9 |
| 20260510084553 | 60 | 12 | 5.2 | 10.4 | 0.00 | 0.00 | 0.00 | 66 | 1019.9 |
| 20260510083055 | 60 | 323 | 6.1 | 10.4 | 0.00 | 0.00 | 0.00 | 70 | 1020.0 |
| 20260510081625 | 59 | 340 | 4.3 | 12.2 | 0.00 | 0.00 | 0.00 | 69 | 1020.1 |
| 20260510080055 | 58 | 355 | 5.2 | 13.0 | 0.00 | 0.00 | 0.00 | 71 | 1020.2 |
| 20260510074555 | 57 | 11 | 6.1 | 11.3 | 0.00 | 0.00 | 0.00 | 71 | 1020.3 |
| 20260510073104 | 57 | 335 | 6.1 | 12.2 | 0.00 | 0.00 | 0.00 | 72 | 1020.4 |
| 20260510071551 | 56 | 336 | 4.3 | 9.6 | 0.00 | 0.00 | 0.00 | 76 | 1020.6 |
| 20260510070056 | 55 | 5 | 6.1 | 11.3 | 0.00 | 0.00 | 0.00 | 78 | 1020.7 |
| 20260510064557 | 55 | 360 | 3.5 | 8.7 | 0.00 | 0.00 | 0.00 | 81 | 1020.8 |
| 20260510063051 | 54 | 352 | 5.2 | 11.3 | 0.00 | 0.00 | 0.00 | 81 | 1020.7 |
| 20260510061552 | 54 | 9 | 3.5 | 8.7 | 0.00 | 0.00 | 0.00 | 82 | 1020.9 |
| 20260510060057 | 53 | 355 | 4.3 | 11.3 | 0.00 | 0.00 | 0.00 | 84 | 1020.9 |
| 20260510054556 | 52 | 348 | 3.5 | 8.7 | 0.00 | 0.00 | 0.00 | 85 | 1020.8 |
| 20260510053107 | 52 | 14 | 4.3 | 8.7 | 0.00 | 0.00 | 0.00 | 86 | 1020.9 |
| 20260510051606 | 51 | 13 | 3.5 | 8.7 | 0.00 | 0.00 | 0.00 | 86 | 1020.8 |
| 20260510050112 | 51 | 30 | 2.6 | 7.8 | 0.00 | 0.00 | 0.00 | 87 | 1020.7 |
| 20260510044605 | 51 | 360 | 2.6 | 8.7 | 0.00 | 0.00 | 0.00 | 87 | 1020.7 |
| 20260510043059 | 51 | 17 | 3.5 | 7.8 | 0.00 | 0.00 | 0.00 | 87 | 1020.6 |
| 20260510041602 | 51 | 355 | 2.6 | 7.8 | 0.00 | 0.00 | 0.00 | 87 | 1020.4 |
| 20260510040055 | 51 | 344 | 3.5 | 7.8 | 0.00 | 0.00 | 0.00 | 87 | 1020.6 |
| 20260510034556 | 51 | 5 | 2.6 | 7.8 | 0.00 | 0.00 | 0.00 | 87 | 1020.6 |
| 20260510033107 | 51 | 348 | 1.7 | 6.1 | 0.00 | 0.00 | 0.00 | 87 | 1020.6 |
| 20260510031550 | 51 | 360 | 3.5 | 7.0 | 0.00 | 0.00 | 0.00 | 87 | 1020.7 |
| 20260510030110 | 51 | 355 | 2.6 | 5.2 | 0.00 | 0.00 | 0.00 | 87 | 1020.6 |
| 20260510024658 | 52 | 15 | 2.6 | 8.7 | 0.00 | 0.00 | 0.00 | 87 | 1020.7 |
| 20260510023052 | 52 | 329 | 3.5 | 7.8 | 0.00 | 0.00 | 0.00 | 86 | 1020.7 |
| 20260510021554 | 51 | 325 | 2.6 | 7.0 | 0.00 | 0.00 | 0.00 | 86 | 1020.9 |
| 20260510020051 | 51 | 351 | 2.6 | 6.1 | 0.00 | 0.00 | 0.00 | 85 | 1020.9 |
| 20260510014558 | 52 | 355 | 1.7 | 5.2 | 0.00 | 0.00 | 0.00 | 84 | 1020.9 |
| 20260510013051 | 52 | 9 | 1.7 | 5.2 | 0.00 | 0.00 | 0.00 | 84 | 1021.0 |
| 20260510011549 | 52 | 333 | 2.6 | 6.1 | 0.00 | 0.00 | 0.00 | 83 | 1021.0 |
| 20260510010049 | 52 | 345 | 1.7 | 5.2 | 0.00 | 0.00 | 0.00 | 82 | 1021.2 |
| 20260510004556 | 52 | 0 | 0.9 | 4.3 | 0.00 | 0.00 | 0.00 | 82 | 1021.2 |
| 20260510003100 | 52 | 360 | 0.0 | 1.7 | 0.00 | 0.00 | 0.00 | 81 | 1021.4 |
| 20260510001556 | 52 | 12 | 0.0 | 2.6 | 0.00 | 0.00 | 0.00 | 80 | 1021.3 |
| 20260510000056 | 52 | 351 | 0.0 | 3.5 | 0.00 | 0.00 | 0.00 | 79 | 1021.5 |
| 20260509234559 | 52 | 0 | 0.9 | 4.3 | 0.00 | 0.00 | 0.00 | 79 | 1021.7 |
| 20260509233101 | 52 | 355 | 0.0 | 1.7 | 0.00 | 0.00 | 0.00 | 77 | 1021.6 |
| 20260509231556 | 53 | 0 | 0.0 | 0.9 | 0.00 | 0.00 | 0.00 | 75 | 1021.7 |
| 20260509230058 | 53 | 5 | 0.0 | 3.5 | 0.00 | 0.00 | 0.00 | 75 | 1021.7 |
| 20260509224553 | 54 | 0 | 0.0 | 1.7 | 0.00 | 0.00 | 0.00 | 74 | 1021.6 |
| 20260509223058 | 54 | 0 | 0.0 | 2.6 | 0.00 | 0.00 | 0.00 | 72 | 1021.6 |
| 20260509221554 | 56 | 9 | 0.9 | 3.5 | 0.00 | 0.00 | 0.00 | 69 | 1021.7 |
| 20260509220046 | 56 | 0 | 0.9 | 4.3 | 0.00 | 0.00 | 0.00 | 68 | 1021.7 |
| 20260509214550 | 57 | 360 | 0.9 | 4.3 | 0.00 | 0.00 | 0.00 | 68 | 1021.6 |
| 20260509213049 | 57 | 0 | 0.0 | 6.1 | 0.00 | 0.00 | 0.00 | 68 | 1021.7 |
| 20260509211557 | 57 | 5 | 1.7 | 5.2 | 0.00 | 0.00 | 0.00 | 68 | 1021.5 |
| 20260509210050 | 58 | 0 | 0.0 | 2.6 | 0.00 | 0.00 | 0.00 | 67 | 1021.4 |
| 20260509204556 | 58 | 11 | 0.9 | 3.5 | 0.00 | 0.00 | 0.00 | 66 | 1021.2 |
| 20260509203058 | 59 | 11 | 1.7 | 4.3 | 0.00 | 0.00 | 0.00 | 65 | 1021.1 |
| 20260509201600 | 59 | 360 | 1.7 | 4.3 | 0.00 | 0.00 | 0.00 | 65 | 1021.4 |
| 20260509200104 | 58 | 355 | 1.7 | 3.5 | 0.00 | 0.00 | 0.00 | 67 | 1021.1 |
| 20260509194549 | 58 | 355 | 1.7 | 4.3 | 0.00 | 0.00 | 0.00 | 67 | 1021.0 |
| 20260509193114 | 58 | 0 | 0.0 | 0.0 | 0.00 | 0.00 | 0.00 | 69 | 1020.9 |
| 20260509191553 | 59 | 0 | 0.0 | 0.0 | 0.00 | 0.00 | 0.00 | 69 | 1021.0 |
| 20260509190052 | 60 | 355 | 0.0 | 3.5 | 0.00 | 0.00 | 0.00 | 66 | 1020.9 |
| 20260509184604 | 61 | 338 | 1.7 | 4.3 | 0.00 | 0.00 | 0.00 | 64 | 1020.9 |
| 20260509183056 | 62 | 355 | 2.6 | 5.2 | 0.00 | 0.00 | 0.00 | 62 | 1020.9 |
| 20260509181555 | 63 | 317 | 2.6 | 4.3 | 0.00 | 0.00 | 0.00 | 62 | 1020.8 |
| 20260509180054 | 64 | 347 | 2.6 | 7.8 | 0.00 | 0.00 | 0.00 | 60 | 1020.7 |
| 20260509174555 | 65 | 333 | 3.5 | 7.8 | 0.00 | 0.00 | 0.00 | 58 | 1020.5 |
| 20260509173106 | 65 | 338 | 3.5 | 8.7 | 0.00 | 0.00 | 0.00 | 58 | 1020.5 |
| 20260509171615 | 66 | 0 | 3.5 | 8.7 | 0.00 | 0.00 | 0.00 | 58 | 1020.4 |
| 20260509170052 | 66 | 344 | 4.3 | 8.7 | 0.00 | 0.00 | 0.00 | 56 | 1020.6 |
| 20260509164552 | 67 | 329 | 3.5 | 7.8 | 0.00 | 0.00 | 0.00 | 55 | 1020.7 |
| 20260509163104 | 68 | 0 | 0.9 | 7.8 | 0.00 | 0.00 | 0.00 | 54 | 1020.7 |
| 20260509161553 | 69 | 0 | 0.0 | 2.6 | 0.00 | 0.00 | 0.00 | 46 | 1020.7 |
| 20260509160051 | 68 | 0 | 0.0 | 3.5 | 0.00 | 0.00 | 0.00 | 49 | 1020.7 |
| 20260509154551 | 69 | 0 | 0.0 | 6.1 | 0.00 | 0.00 | 0.00 | 45 | 1020.7 |
| 20260509153052 | 70 | 0 | 1.7 | 7.0 | 0.00 | 0.00 | 0.00 | 47 | 1020.8 |
| 20260509151603 | 71 | 0 | 0.0 | 4.3 | 0.00 | 0.00 | 0.00 | 46 | 1020.8 |
| 20260509144701 | 68 | 355 | 1.7 | 3.5 | 0.00 | 0.00 | 0.00 | 49 | 1020.9 |
| 20260509143052 | 70 | 0 | 0.0 | 3.5 | 0.00 | 0.00 | 0.00 | 44 | 1021.1 |
| 20260509141551 | 71 | 0 | 0.0 | 3.5 | 0.00 | 0.00 | 0.00 | 45 | 1021.3 |
| 20260509140052 | 69 | 0 | 0.9 | 5.2 | 0.00 | 0.00 | 0.00 | 49 | 1021.6 |
| 20260509134553 | 69 | 9 | 1.7 | 7.0 | 0.00 | 0.00 | 0.00 | 50 | 1021.7 |
| 20260509133054 | 69 | 0 | 0.0 | 6.1 | 0.00 | 0.00 | 0.00 | 47 | 1022.0 |
| 20260509131555 | 69 | 0 | 0.0 | 5.2 | 0.00 | 0.00 | 0.00 | 48 | 1022.0 |
| 20260509130104 | 68 | 0 | 0.0 | 6.1 | 0.00 | 0.00 | 0.00 | 50 | 1022.3 |
| 20260509124605 | 68 | 0 | 0.9 | 4.3 | 0.00 | 0.00 | 0.00 | 53 | 1022.5 |
| 20260509123056 | 68 | 0 | 0.9 | 5.2 | 0.00 | 0.00 | 0.00 | 49 | 1022.6 |
| 20260509121552 | 69 | 335 | 0.9 | 4.3 | 0.00 | 0.00 | 0.00 | 48 | 1022.8 |
| 20260509120107 | 68 | 0 | 0.9 | 5.2 | 0.00 | 0.00 | 0.00 | 51 | 1022.9 |
| 20260509114607 | 68 | 0 | 0.0 | 5.2 | 0.00 | 0.00 | 0.00 | 51 | 1022.9 |
| 20260509113052 | 67 | 0 | 0.0 | 5.2 | 0.00 | 0.00 | 0.00 | 52 | 1023.2 |
| 20260509111549 | 67 | 0 | 0.0 | 7.0 | 0.00 | 0.00 | 0.00 | 55 | 1023.4 |
| 20260509110056 | 66 | 0 | 1.7 | 8.7 | 0.00 | 0.00 | 0.00 | 55 | 1023.4 |
| 20260509104552 | 67 | 355 | 0.9 | 7.0 | 0.00 | 0.00 | 0.00 | 53 | 1023.6 |
| 20260509103053 | 66 | 0 | 0.0 | 8.7 | 0.00 | 0.00 | 0.00 | 53 | 1023.7 |
| 20260509101552 | 67 | 0 | 1.7 | 7.8 | 0.00 | 0.00 | 0.00 | 52 | 1023.6 |
| 20260509100058 | 66 | 59 | 0.0 | 7.8 | 0.00 | 0.00 | 0.00 | 51 | 1023.6 |
| 20260509094553 | 66 | 0 | 0.9 | 5.2 | 0.00 | 0.00 | 0.00 | 55 | 1023.5 |
| 20260509093052 | 67 | 11 | 0.0 | 2.6 | 0.00 | 0.00 | 0.00 | 54 | 1023.8 |
| 20260509091551 | 66 | 0 | 0.0 | 3.5 | 0.00 | 0.00 | 0.00 | 54 | 1023.8 |